Date,TemperatureHighF,TemperatureAvgF,TemperatureLowF,DewpointHighF,DewpointAvgF,DewpointLowF,HumidityHigh,HumidityAvg,HumidityLow,PressureMaxIn,PressureMinIn,WindSpeedMaxMPH,WindSpeedAvgMPH,GustSpeedMaxMPH,PrecipitationSumIn
2013-1-1,79,70,62,64,61,57,90,72,57,30.16,30.02,15,2,15,0.00
2013-1-2,81,69,57,68,63,56,98,82,56,30.06,29.95,10,0,10,0.00
2013-1-3,83,72,64,70,66,62,97,84,62,30.10,29.99,9,1,9,0.00
2013-1-4,83,71,63,72,67,62,98,88,61,30.20,30.07,7,0,7,0.00
2013-1-5,74,68,63,70,66,62,97,93,85,30.22,30.12,6,1,6,0.05
2013-1-6,82,71,62,73,67,61,99,89,69,30.16,30.02,11,1,11,0.01
2013-1-7,76,70,64,71,68,63,98,93,80,30.13,30.03,7,0,7,0.27
2013-1-8,81,74,69,74,70,67,98,89,76,30.19,30.04,13,2,13,0.43
2013-1-9,82,76,71,73,71,69,96,83,73,30.25,30.12,14,3,14,0.01
2013-1-10,80,75,72,70,67,64,85,77,61,30.26,30.15,17,2,17,0.00
2013-1-11,79,74,71,72,68,67,92,82,72,30.22,30.12,11,2,11,0.07
2013-1-12,80,74,68,70,67,65,92,79,64,30.15,30.06,11,2,11,0.01
2013-1-13,82,74,68,69,66,62,91,75,62,30.09,30.03,13,2,13,0.00
2013-1-14,80,73,62,67,65,60,96,78,63,30.13,30.08,14,2,14,0.00
2013-1-15,80,72,64,69,66,62,95,81,64,30.10,30.01,10,1,10,0.00
2013-1-16,81,70,60,70,66,59,98,86,65,30.07,29.97,11,1,11,0.00
2013-1-17,81,71,61,72,66,53,97,84,68,30.05,29.93,11,2,11,0.00
2013-1-18,73,62,51,60,54,46,84,73,62,30.19,30.05,14,2,14,0.00
2013-1-19,71,68,65,68,64,59,97,89,74,30.18,30.06,5,0,5,0.14
2013-1-20,80,68,61,70,66,60,98,91,68,30.10,29.97,7,0,7,0.12
2013-1-21,80,71,64,71,67,63,98,88,69,30.03,29.92,11,1,11,0.02
2013-1-22,77,67,62,64,59,53,96,76,59,30.18,29.96,11,2,11,0.00
2013-1-23,75,65,57,62,56,53,89,73,49,30.26,30.16,9,1,9,0.00
2013-1-24,76,64,55,57,52,43,92,69,39,30.26,30.16,8,1,8,0.00
2013-1-25,76,61,53,60,55,50,94,81,51,30.25,30.14,9,0,9,0.00
2013-1-26,79,65,54,61,57,51,96,77,47,30.22,30.12,8,1,8,0.00
2013-1-27,79,68,57,64,59,56,98,76,47,30.25,30.16,11,1,11,0.00
2013-1-28,80,74,69,68,65,61,85,74,60,30.28,30.18,14,2,14,0.00
2013-1-29,78,73,69,71,68,66,97,84,72,30.19,30.08,13,2,13,0.25
2013-1-30,79,74,68,68,65,63,84,75,65,30.08,29.93,17,4,17,0.00
2013-1-31,71,62,55,69,52,41,96,71,54,30.15,29.91,5,1,13,0.01
2013-2-1,72,60,51,59,48,38,78,66,55,30.24,30.13,11,2,11,0.00
2013-2-2,74,61,51,56,49,37,93,66,47,30.22,30.08,10,1,10,0.00
2013-2-3,75,60,50,56,48,38,96,69,29,30.13,30.03,8,1,8,0.00
2013-2-4,76,60,45,55,47,41,93,66,34,30.10,29.99,9,1,9,0.00
2013-2-5,79,68,50,62,58,48,98,75,49,30.04,29.96,9,1,9,0.00
2013-2-6,79,68,56,68,62,55,98,81,64,30.07,29.98,8,1,8,0.00
2013-2-7,80,71,60,69,64,58,97,79,57,30.04,29.90,11,1,11,0.00
2013-2-8,83,71,62,70,65,60,95,82,53,29.99,29.87,9,1,9,0.00
2013-2-9,80,70,61,69,63,60,98,80,58,30.14,29.98,10,1,10,0.00
2013-2-10,74,71,67,64,62,59,87,75,66,30.23,30.11,13,2,13,0.00
2013-2-11,78,70,61,66,63,58,95,79,64,30.18,30.07,13,2,13,0.00
2013-2-12,86,72,59,70,65,58,98,81,50,30.08,29.93,11,1,11,0.00
2013-2-13,87,75,65,73,68,64,98,81,53,29.97,29.84,15,2,15,0.00
2013-2-14,79,68,62,73,66,61,97,94,81,29.97,29.82,9,1,9,0.60
2013-2-15,72,66,62,68,64,61,97,95,84,29.99,29.89,5,0,5,0.23
2013-2-16,72,64,54,64,56,44,98,79,51,30.04,29.83,12,2,12,0.04
2013-2-17,54,48,43,44,33,22,72,56,30,30.24,30.04,13,3,15,0.00
2013-2-18,69,62,45,56,50,31,72,65,49,30.28,30.16,9,2,14,0.00
2013-2-19,78,68,54,66,60,52,94,75,60,30.16,30.04,13,2,13,0.01
2013-2-20,79,70,61,71,64,60,97,83,59,30.07,29.96,11,1,11,0.02
2013-2-21,81,71,60,70,65,59,98,84,63,30.04,29.95,8,1,10,0.00
2013-2-22,81,74,65,72,69,64,97,84,71,30.04,29.96,15,3,15,0.00
2013-2-23,82,76,69,73,70,68,96,84,69,29.99,29.85,13,2,13,0.83
2013-2-24,88,76,69,74,70,66,98,83,52,29.94,29.83,10,1,10,0.00
2013-2-25,84,74,66,74,70,64,98,86,65,29.87,29.76,14,2,14,0.00
2013-2-26,86,78,72,73,71,69,94,80,60,29.83,29.74,16,2,16,0.00
2013-2-27,75,69,61,73,65,59,97,87,66,29.92,29.80,8,1,8,0.82
2013-2-28,70,63,58,63,54,47,97,75,48,29.95,29.85,9,1,9,0.00
2013-3-1,65,61,57,57,51,47,88,71,59,29.93,29.84,8,1,8,0.00
2013-3-2,66,57,47,50,43,36,88,60,43,29.98,29.90,14,3,14,0.00
2013-3-3,61,53,47,44,42,37,88,66,48,30.09,29.91,15,2,15,0.00
2013-3-4,68,52,38,44,37,30,91,60,26,30.16,30.06,12,2,12,0.00
2013-3-5,75,61,45,60,52,43,97,76,53,30.13,30.02,11,1,11,0.00
2013-3-6,77,64,52,65,52,34,96,69,29,30.04,29.89,12,2,12,0.00
2013-3-7,71,58,46,55,45,35,94,65,40,30.13,30.02,10,2,10,0.00
2013-3-8,76,61,48,55,50,42,97,72,32,30.15,30.04,8,1,8,0.00
2013-3-9,76,63,50,59,53,48,97,73,53,30.14,30.04,12,1,12,0.00
2013-3-10,75,69,62,61,57,53,75,65,53,30.11,30.01,13,2,13,0.00
2013-3-11,78,71,67,63,60,58,81,70,53,30.06,29.90,14,3,14,0.00
2013-3-12,81,74,66,70,66,62,89,76,64,29.94,29.85,13,2,13,0.00
2013-3-13,70,61,56,66,58,53,92,87,76,30.04,29.92,8,2,8,0.00
2013-3-14,71,61,52,52,47,41,92,62,34,30.15,30.03,13,2,13,0.00
2013-3-15,73,61,49,54,50,44,89,67,40,30.19,30.09,12,1,12,0.00
2013-3-16,75,63,49,56,53,48,95,73,46,30.13,30.02,13,1,13,0.00
2013-3-17,75,64,54,62,58,52,97,80,60,30.10,29.97,13,1,13,0.00
2013-3-18,80,70,61,70,65,58,97,85,66,30.02,29.90,14,2,14,0.58
2013-3-19,79,71,65,69,67,63,96,86,67,29.95,29.77,12,1,12,0.00
2013-3-20,84,71,61,70,64,59,98,79,55,29.92,29.74,9,1,10,0.01
2013-3-21,76,65,53,62,54,47,93,70,37,29.89,29.76,8,2,8,0.00
2013-3-22,75,65,50,69,58,49,98,81,60,29.95,29.84,14,2,14,0.00
2013-3-23,84,73,69,75,70,68,97,91,67,29.93,29.85,10,0,10,0.01
2013-3-24,89,80,71,74,71,66,96,74,56,29.83,29.61,16,3,20,0.72
2013-3-25,78,72,63,72,60,38,97,69,33,29.93,29.68,11,2,11,0.01
2013-3-26,67,60,51,43,38,31,61,46,29,30.15,29.92,13,4,13,0.00
2013-3-27,69,56,45,48,41,33,87,58,32,30.19,30.11,8,2,10,0.00
2013-3-28,72,59,46,54,45,36,89,64,32,30.21,30.10,9,1,9,0.00
2013-3-29,75,61,49,55,50,43,92,69,45,30.23,30.14,9,1,10,0.00
2013-3-30,75,63,51,59,52,49,97,70,43,30.20,30.10,12,1,12,0.00
2013-3-31,79,69,55,66,61,53,97,77,58,30.13,29.98,13,2,13,0.00
2013-4-1,89,75,65,72,66,62,97,75,43,30.00,29.87,12,1,12,0.00
2013-4-2,84,73,64,68,65,62,97,79,55,30.01,29.92,9,1,10,0.00
2013-4-3,83,75,66,70,68,64,95,79,64,30.00,29.92,13,2,13,0.00
2013-4-4,84,74,68,74,70,66,97,85,71,29.99,29.84,12,2,12,0.63
2013-4-5,72,68,63,70,66,62,97,93,86,29.94,29.75,12,1,12,0.60
2013-4-6,78,68,58,68,61,56,97,81,60,30.02,29.85,13,2,13,0.01
2013-4-7,78,72,63,67,63,60,89,72,62,30.08,29.96,12,2,12,0.00
2013-4-8,81,70,58,66,62,57,98,77,48,30.07,29.98,10,1,10,0.00
2013-4-9,81,74,68,69,67,64,89,78,64,30.09,29.99,13,2,14,0.05
2013-4-10,82,76,69,73,70,66,90,82,69,30.04,29.93,13,3,13,0.01
2013-4-11,83,78,75,73,72,70,89,82,72,29.95,29.83,18,4,18,0.00
2013-4-12,86,79,75,77,74,72,94,85,71,29.88,29.79,15,3,15,0.14
2013-4-13,86,75,69,76,72,67,97,91,71,29.90,29.81,14,1,15,0.82
2013-4-14,85,78,69,76,73,68,98,86,69,29.90,29.83,14,2,14,0.00
2013-4-15,89,77,70,77,72,68,97,87,62,29.99,29.86,13,1,13,1.01
2013-4-16,85,76,68,77,72,67,98,87,71,30.06,29.96,11,1,11,0.01
2013-4-17,83,76,68,71,68,65,95,77,60,30.05,29.96,11,1,11,0.00
2013-4-18,85,78,70,74,71,66,94,79,64,30.00,29.91,14,2,14,0.00
2013-4-19,86,80,76,74,72,70,89,77,62,29.98,29.89,17,4,17,0.00
2013-4-20,91,78,71,77,72,68,96,84,50,30.02,29.90,11,1,11,0.03
2013-4-21,84,77,71,74,71,69,95,84,69,30.03,29.91,14,2,14,0.00
2013-4-22,84,75,71,72,69,67,91,81,62,29.98,29.87,12,1,12,0.01
2013-4-23,84,74,66,70,66,60,96,76,56,30.02,29.89,15,2,15,0.00
2013-4-24,82,75,64,67,64,60,92,69,56,30.07,29.97,11,1,11,0.00
2013-4-25,83,74,64,67,63,60,93,68,48,30.13,30.01,11,1,11,0.00
2013-4-26,84,73,62,68,64,60,95,74,56,30.16,30.05,11,1,11,0.00
2013-4-27,82,76,66,68,64,60,85,68,51,30.14,30.02,13,2,13,0.00
2013-4-28,82,76,72,66,64,57,75,66,47,30.05,29.93,13,2,13,0.00
2013-4-29,83,76,67,71,68,62,91,76,61,29.97,29.87,13,2,13,0.00
2013-4-30,85,74,69,73,70,66,97,86,63,29.95,29.86,7,1,14,1.41
2013-5-1,83,73,67,74,69,66,98,89,67,29.93,29.86,8,1,8,0.35
2013-5-2,77,71,68,73,69,66,98,95,85,29.89,29.73,14,1,14,3.11
2013-5-3,86,74,67,73,69,66,98,87,59,29.76,29.60,11,1,11,0.66
2013-5-4,86,75,66,73,68,65,98,82,60,29.74,29.62,9,1,9,0.01
2013-5-5,81,72,61,68,62,53,96,74,43,29.86,29.68,11,1,11,0.00
2013-5-6,84,70,56,68,61,54,97,74,52,29.94,29.85,11,1,11,0.01
2013-5-7,83,71,60,66,60,55,90,70,47,29.99,29.90,10,1,10,0.00
2013-5-8,84,72,58,66,61,55,97,71,39,30.07,29.97,9,1,9,0.00
2013-5-9,86,76,62,73,67,60,94,77,55,30.07,29.98,10,1,10,0.00
2013-5-10,87,79,70,74,72,69,96,80,58,30.06,29.94,12,2,12,0.00
2013-5-11,86,77,71,77,73,67,98,86,66,30.00,29.90,13,2,13,0.85
2013-5-12,89,76,69,76,71,66,98,87,57,29.99,29.85,22,1,22,1.77
2013-5-13,86,76,69,74,69,65,98,80,52,30.01,29.92,10,1,10,0.00
2013-5-14,80,74,66,66,62,57,89,67,50,30.10,29.99,11,1,11,0.00
2013-5-15,80,73,62,66,62,57,90,69,54,30.12,30.02,11,2,11,0.00
2013-5-16,82,74,62,67,63,59,95,70,55,30.04,29.97,10,1,10,0.00
2013-5-17,84,74,66,75,68,63,95,84,68,30.00,29.94,9,1,9,0.01
2013-5-18,84,79,69,77,72,68,97,79,70,30.03,29.96,14,2,14,0.33
2013-5-19,85,78,69,72,70,68,97,78,60,30.03,29.93,11,1,11,0.00
2013-5-20,79,74,67,74,71,65,97,91,78,30.01,29.90,12,1,12,1.70
2013-5-21,82,75,68,75,71,66,98,88,70,29.99,29.86,14,2,14,0.04
2013-5-22,85,76,71,75,72,68,97,85,65,29.90,29.82,14,1,14,0.06
2013-5-23,90,80,72,76,73,66,97,80,45,29.93,29.83,9,1,9,0.00
2013-5-24,92,82,74,76,72,64,97,76,44,29.99,29.87,4,1,11,0.00
2013-5-25,84,79,73,74,69,65,96,74,56,30.09,29.97,9,2,12,0.03
2013-5-26,84,76,66,70,65,61,91,69,56,30.10,30.03,12,2,12,0.00
2013-5-27,84,78,71,73,69,63,87,76,67,30.08,30.00,13,2,13,0.02
2013-5-28,83,78,74,75,72,71,94,84,74,30.04,29.97,22,3,22,0.14
2013-5-29,80,75,70,74,72,68,97,89,68,30.02,29.95,13,2,16,4.30
2013-5-30,81,77,72,75,72,68,95,85,76,30.01,29.93,18,3,18,0.54
2013-5-31,83,77,74,76,73,71,96,88,75,29.99,29.93,12,2,17,0.96
2013-6-1,84,76,72,77,74,72,98,93,80,29.95,29.88,9,1,9,0.77
2013-6-2,88,78,71,78,74,70,98,88,66,29.93,29.84,10,1,10,0.16
2013-6-3,85,77,71,77,74,70,98,92,73,29.96,29.83,11,1,11,0.99
2013-6-4,85,78,74,77,75,73,98,90,74,29.98,29.88,9,0,9,0.03
2013-6-5,83,80,77,78,76,74,93,88,82,29.94,29.82,7,1,7,0.07
2013-6-6,86,79,72,79,76,71,97,89,76,29.83,29.69,22,3,22,1.76
2013-6-7,89,77,73,80,74,72,97,91,70,29.92,29.76,8,1,10,0.89
2013-6-8,84,77,73,79,75,72,98,93,80,30.04,29.88,8,0,8,1.70
2013-6-9,86,81,74,77,75,73,97,83,70,30.04,29.96,13,2,13,0.03
2013-6-10,87,82,79,78,76,75,89,82,71,30.01,29.93,12,2,12,0.00
2013-6-11,87,81,77,79,76,74,95,86,68,30.01,29.93,9,1,9,0.03
2013-6-12,87,78,74,80,76,71,97,92,70,30.01,29.94,5,0,5,0.53
2013-6-13,90,79,73,79,74,71,98,86,61,29.97,29.86,9,0,9,0.00
2013-6-14,92,80,73,77,73,69,98,81,55,29.89,29.80,10,1,10,0.00
2013-6-15,90,81,73,78,75,72,97,82,62,29.98,29.84,10,1,10,0.01
2013-6-16,90,82,74,78,75,72,98,81,56,30.02,29.94,10,1,10,0.00
2013-6-17,90,83,75,78,76,74,97,79,63,30.00,29.93,13,2,13,0.00
2013-6-18,90,83,75,78,75,73,97,80,62,29.99,29.90,11,2,11,0.00
2013-6-19,90,83,76,78,76,74,96,80,62,29.97,29.90,13,1,13,0.00
2013-6-20,91,80,71,78,74,70,97,81,58,30.01,29.94,11,1,11,0.06
2013-6-21,90,82,73,77,74,72,97,79,58,30.03,29.95,10,1,11,0.00
2013-6-22,89,82,73,76,74,72,96,78,60,30.02,29.96,9,1,9,0.00
2013-6-23,88,82,75,77,75,72,94,79,65,30.05,29.97,9,2,12,0.18
2013-6-24,89,83,79,77,74,72,83,75,63,30.09,30.00,13,2,13,0.00
2013-6-25,89,82,77,78,75,72,90,79,66,30.06,29.96,12,2,12,0.00
2013-6-26,89,82,76,77,75,72,95,80,60,30.00,29.93,11,1,11,0.02
2013-6-27,88,80,74,80,75,70,97,86,68,29.99,29.88,8,1,8,0.66
2013-6-28,91,80,73,78,75,71,98,84,58,29.92,29.78,10,1,10,0.47
2013-6-29,92,79,73,79,75,71,98,88,56,29.85,29.73,12,1,12,0.85
2013-6-30,90,78,74,79,75,72,98,91,65,29.87,29.77,7,1,11,1.18
2013-7-1,88,79,74,78,75,72,98,88,71,29.96,29.84,15,2,15,0.23
2013-7-2,88,81,73,79,76,72,97,86,71,30.03,29.90,14,2,14,0.01
2013-7-3,87,80,75,78,76,73,96,86,72,30.05,29.97,17,2,17,0.16
2013-7-4,87,82,76,78,76,72,94,81,70,30.08,29.99,16,2,16,0.08
2013-7-5,85,79,74,78,75,71,97,87,76,30.07,29.98,14,2,14,1.30
2013-7-6,88,82,79,77,75,73,85,78,67,30.04,29.95,16,2,16,0.00
2013-7-7,88,82,76,78,75,73,91,80,70,30.03,29.95,14,2,14,0.06
2013-7-8,88,81,73,78,74,71,96,79,59,30.07,30.00,13,1,13,0.00
2013-7-9,86,79,73,77,73,69,96,84,68,30.07,29.97,10,1,10,0.18
2013-7-10,85,77,71,76,73,69,97,88,71,30.01,29.92,11,1,11,0.37
2013-7-11,89,80,74,78,74,71,97,83,62,29.96,29.87,11,1,11,0.00
2013-7-12,90,78,73,78,74,71,98,88,61,29.89,29.82,12,0,12,1.03
2013-7-13,86,75,72,78,73,71,98,95,75,29.95,29.84,12,0,12,1.85
2013-7-14,88,77,72,77,73,71,98,89,64,30.01,29.90,13,1,13,0.15
2013-7-15,88,79,72,78,74,70,98,85,66,30.02,29.93,12,1,13,0.10
2013-7-16,83,77,72,76,72,70,97,87,68,30.08,29.97,16,2,16,0.49
2013-7-17,80,77,73,75,73,72,97,89,79,30.07,29.97,10,0,10,0.26
2013-7-18,86,77,72,78,73,70,98,89,73,30.05,29.98,10,1,10,0.38
2013-7-19,87,79,73,79,75,72,98,88,70,30.05,29.97,11,1,11,0.00
2013-7-20,86,81,75,79,77,73,96,87,77,30.04,29.95,9,1,10,0.01
2013-7-21,88,79,74,80,76,72,98,90,73,30.08,29.96,8,1,8,0.66
2013-7-22,90,82,74,79,76,74,98,83,62,30.06,29.98,10,1,10,0.00
2013-7-23,94,83,76,79,75,70,96,78,46,30.03,29.89,13,1,13,0.01
2013-7-24,93,83,76,79,74,67,96,77,49,29.94,29.83,9,1,9,0.00
2013-7-25,92,83,74,80,76,72,96,79,62,29.93,29.83,5,1,8,0.00
2013-7-26,92,82,77,79,76,74,92,82,61,29.94,29.85,9,1,9,0.00
2013-7-27,90,78,74,79,75,73,97,91,68,29.92,29.85,10,0,10,0.52
2013-7-28,83,77,73,79,75,71,98,93,81,29.99,29.87,13,0,13,1.50
2013-7-29,90,80,73,80,76,72,98,86,65,30.06,29.94,10,1,10,0.01
2013-7-30,90,82,76,80,77,74,95,84,69,30.08,30.00,11,1,11,0.06
2013-7-31,89,82,76,79,76,73,97,81,63,30.03,29.93,9,2,13,0.00
2013-8-1,90,82,74,77,74,72,95,79,62,29.98,29.86,11,1,13,0.03
2013-8-2,89,79,74,78,74,72,97,87,63,29.97,29.84,8,0,8,0.09
2013-8-3,86,77,72,79,74,70,97,92,72,30.05,29.94,12,0,12,0.23
2013-8-4,94,79,74,80,75,72,98,89,59,30.03,29.89,14,0,14,0.12
2013-8-5,93,80,75,81,76,72,98,87,61,29.96,29.86,11,1,12,0.01
2013-8-6,92,81,74,80,76,73,97,85,65,29.90,29.81,8,0,8,0.00
2013-8-7,88,81,74,79,76,73,98,84,69,29.91,29.82,12,2,12,0.00
2013-8-8,90,84,79,78,76,74,88,77,64,29.94,29.85,15,2,15,0.00
2013-8-9,88,82,79,78,75,72,86,78,65,29.99,29.87,14,2,14,0.04
2013-8-10,90,83,76,79,76,72,94,79,58,30.03,29.95,13,2,13,0.00
2013-8-11,90,84,78,79,76,74,91,78,64,30.05,29.98,11,1,11,0.00
2013-8-12,91,82,74,78,75,72,97,80,61,30.03,29.94,12,1,12,0.00
2013-8-13,91,83,75,79,75,73,97,80,57,29.97,29.87,11,1,11,0.00
2013-8-14,90,82,74,78,75,73,98,79,58,29.95,29.85,12,1,12,0.00
2013-8-15,88,81,74,78,76,72,96,84,67,29.98,29.88,14,1,14,0.05
2013-8-16,90,82,76,81,77,73,96,83,64,29.97,29.90,12,1,12,0.61
2013-8-17,90,83,77,80,78,76,97,83,67,30.00,29.92,12,1,12,0.00
2013-8-18,89,84,79,80,77,74,90,81,66,30.00,29.92,15,2,15,0.15
2013-8-19,89,83,78,79,77,75,93,81,66,30.00,29.89,9,2,17,0.01
2013-8-20,90,83,78,78,76,73,95,79,64,29.99,29.90,14,1,14,0.14
2013-8-21,88,82,76,80,77,74,97,87,74,30.00,29.91,14,2,14,0.15
2013-8-22,89,83,77,80,77,74,97,82,68,29.98,29.88,13,2,13,0.07
2013-8-23,90,82,75,79,76,74,97,83,64,29.94,29.86,12,1,12,0.00
2013-8-24,90,82,75,80,76,70,97,83,61,30.02,29.89,13,1,13,1.04
2013-8-25,88,80,76,78,75,72,95,83,65,30.07,29.95,10,1,10,0.00
2013-8-26,90,80,72,78,74,70,97,85,64,30.04,29.93,10,1,10,0.72
2013-8-27,85,77,72,78,74,71,98,89,66,29.97,29.89,5,0,5,0.06
2013-8-28,87,78,73,78,74,72,98,89,64,29.96,29.87,5,0,10,0.45
2013-8-29,90,81,72,78,75,71,98,84,65,29.95,29.84,10,1,10,0.01
2013-8-30,93,83,74,78,75,70,98,79,50,29.92,29.82,13,1,13,0.00
2013-8-31,91,80,72,79,74,70,96,83,58,29.90,29.83,8,1,12,0.20
2013-9-1,89,78,72,78,74,71,98,88,63,29.92,29.85,9,0,9,0.01
2013-9-2,93,78,73,79,74,71,98,90,55,29.97,29.86,13,0,13,1.30
2013-9-3,91,80,71,78,74,70,98,85,59,29.94,29.85,5,0,9,0.01
2013-9-4,89,81,76,80,77,75,98,87,70,29.99,29.87,9,1,9,0.00
2013-9-5,90,83,77,80,77,74,96,83,65,29.99,29.91,10,1,10,0.00
2013-9-6,92,83,76,80,77,75,98,83,61,29.96,29.84,9,1,9,0.00
2013-9-7,88,78,73,79,74,70,97,90,74,29.90,29.82,8,0,8,0.14
2013-9-8,89,78,72,80,74,71,98,90,68,29.87,29.78,7,0,7,0.13
2013-9-9,89,80,72,78,74,71,98,83,65,29.92,29.81,11,1,11,0.02
2013-9-10,88,80,73,79,75,71,98,86,70,29.97,29.87,19,1,19,0.09
2013-9-11,82,77,73,77,74,71,96,91,78,29.99,29.89,9,1,9,0.43
2013-9-12,85,79,74,78,75,73,98,90,77,29.93,29.81,3,0,7,0.01
2013-9-13,90,81,72,79,75,71,98,83,65,29.83,29.72,4,0,9,0.01
2013-9-14,92,82,74,79,75,73,98,81,57,29.89,29.74,10,1,10,0.00
2013-9-15,87,79,74,80,76,70,98,90,76,29.98,29.84,11,0,11,0.17
2013-9-16,86,78,76,79,76,72,98,93,74,29.97,29.88,15,0,15,0.56
2013-9-17,80,76,73,77,74,71,98,93,85,29.96,29.84,8,0,8,0.79
2013-9-18,85,77,73,79,74,71,97,93,79,29.93,29.83,5,0,9,0.34
2013-9-19,88,79,72,80,74,71,99,87,71,29.92,29.84,9,1,11,0.04
2013-9-20,88,79,70,74,71,69,97,78,57,29.92,29.82,10,1,10,0.00
2013-9-21,90,78,70,77,72,68,98,82,62,29.83,29.69,7,1,7,0.00
2013-9-22,92,81,73,78,74,71,98,81,56,29.78,29.67,8,1,8,0.00
2013-9-23,87,80,76,80,76,74,97,89,74,29.90,29.77,9,0,9,0.21
2013-9-24,89,78,73,82,76,72,98,92,72,29.90,29.79,10,0,10,1.25
2013-9-25,90,79,72,81,74,71,98,87,61,29.82,29.69,10,1,10,0.02
2013-9-26,90,79,74,82,76,73,98,92,71,29.78,29.70,11,1,11,0.71
2013-9-27,88,79,72,76,73,69,98,84,56,29.84,29.73,8,1,8,0.11
2013-9-28,87,78,72,78,73,70,98,86,67,29.88,29.79,12,1,12,0.41
2013-9-29,88,78,69,75,71,68,98,82,58,29.88,29.80,9,1,9,0.00
2013-9-30,89,78,69,75,71,68,98,82,59,29.92,29.82,7,1,8,0.00
2013-10-1,88,80,71,77,73,70,97,79,63,29.95,29.87,10,1,10,0.00
2013-10-2,87,81,77,76,73,72,85,76,63,29.96,29.89,9,1,11,0.00
2013-10-3,87,80,74,76,73,70,91,80,61,29.97,29.87,10,1,10,0.00
2013-10-4,88,78,71,76,72,68,98,80,57,29.97,29.90,9,1,9,0.00
2013-10-5,88,78,69,76,72,68,98,82,62,29.95,29.85,10,1,10,0.00
2013-10-6,89,79,71,77,73,68,97,81,52,29.89,29.78,11,1,11,0.00
2013-10-7,90,77,72,78,73,70,98,88,60,29.81,29.72,9,1,9,0.56
2013-10-8,90,80,74,78,74,70,98,85,65,29.85,29.76,7,0,7,0.01
2013-10-9,84,76,70,77,73,68,97,89,77,29.90,29.81,9,1,9,0.00
2013-10-10,88,78,69,77,72,68,97,82,61,29.93,29.85,10,1,10,0.00
2013-10-11,88,76,67,74,68,65,98,80,57,29.93,29.85,9,1,9,0.00
2013-10-12,87,74,66,72,68,65,98,82,56,29.94,29.86,8,0,8,0.00
2013-10-13,87,75,69,72,67,63,97,79,50,29.97,29.88,11,1,11,0.00
2013-10-14,87,76,67,72,69,66,97,80,57,29.93,29.82,9,1,9,0.00
2013-10-15,86,76,68,74,70,67,97,85,61,29.87,29.78,9,1,9,0.00
2013-10-16,86,76,68,75,70,67,98,83,62,29.87,29.80,8,1,8,0.00
2013-10-17,87,77,68,75,70,67,98,82,58,29.88,29.81,9,1,9,0.00
2013-10-18,87,77,68,76,72,68,98,85,65,29.90,29.82,12,1,12,0.00
2013-10-19,89,80,70,76,73,68,98,81,58,29.88,29.79,10,1,10,0.00
2013-10-20,90,80,73,78,75,72,98,85,62,29.88,29.79,9,0,9,0.00
2013-10-21,89,80,72,78,75,71,98,84,66,29.92,29.81,8,1,9,0.00
2013-10-22,91,81,73,78,75,72,98,83,60,29.88,29.74,10,1,10,0.05
2013-10-23,88,79,73,78,73,68,96,83,63,29.87,29.73,10,1,10,0.00
2013-10-24,80,75,70,69,66,62,87,74,64,30.01,29.85,7,1,8,0.00
2013-10-25,83,74,66,68,65,62,89,74,55,30.07,29.98,13,1,13,0.00
2013-10-26,84,72,64,68,64,61,93,77,54,30.06,29.97,8,0,8,0.00
2013-10-27,83,71,61,69,64,59,95,79,57,30.01,29.93,8,0,8,0.00
2013-10-28,85,73,62,71,65,61,98,79,49,30.06,29.96,9,1,9,0.00
2013-10-29,85,75,64,72,67,63,97,78,60,30.09,30.00,14,1,14,0.00
2013-10-30,84,78,68,70,67,65,91,72,59,30.10,30.00,12,2,15,0.00
2013-10-31,84,79,74,73,70,66,87,76,64,30.03,29.91,10,2,14,0.00
2013-11-1,86,79,69,76,72,68,97,81,64,29.92,29.80,12,1,12,0.00
2013-11-2,89,78,68,75,70,62,98,79,52,29.85,29.71,10,1,10,0.00
2013-11-3,81,73,67,68,63,61,84,72,58,29.94,29.80,13,2,13,0.00
2013-11-4,80,75,66,70,64,59,88,70,59,29.99,29.92,15,2,15,0.05
2013-11-5,82,78,75,71,69,64,80,74,67,30.01,29.93,15,4,15,0.00
2013-11-6,85,77,68,71,68,66,95,75,58,29.98,29.91,17,2,17,0.00
2013-11-7,86,75,67,75,70,66,97,84,62,29.93,29.83,6,0,6,0.00
2013-11-8,85,75,70,73,70,67,95,86,63,29.96,29.85,13,2,13,0.39
2013-11-9,78,76,73,72,71,70,94,86,79,30.03,29.93,17,3,17,0.09
2013-11-10,84,78,74,74,71,68,89,80,69,30.04,29.96,10,1,10,0.01
2013-11-11,83,75,68,74,68,64,94,80,67,30.03,29.96,10,1,10,0.00
2013-11-12,85,75,67,73,68,65,96,80,59,29.99,29.88,8,0,8,0.00
2013-11-13,75,71,67,69,63,54,92,77,63,30.14,29.91,15,2,15,0.03
2013-11-14,77,72,68,62,59,55,74,64,57,30.16,30.06,16,3,16,0.00
2013-11-15,80,76,72,69,66,61,78,73,67,30.06,29.95,14,2,14,0.00
2013-11-16,80,76,72,73,70,67,95,83,70,30.01,29.93,14,1,14,0.19
2013-11-17,83,77,71,74,71,69,95,81,68,29.99,29.91,9,2,12,0.00
2013-11-18,83,75,68,76,71,68,98,88,73,29.94,29.83,8,0,8,0.03
2013-11-19,84,74,70,75,71,69,97,91,67,29.85,29.76,7,0,7,0.13
2013-11-20,84,74,67,76,71,66,98,89,74,29.97,29.83,5,0,10,0.01
2013-11-21,81,75,71,75,72,70,97,89,76,30.06,29.96,12,1,12,0.33
2013-11-22,82,77,74,72,70,68,85,80,71,30.07,29.99,12,2,12,0.00
2013-11-23,83,76,67,73,70,66,95,82,69,29.99,29.89,11,1,11,0.00
2013-11-24,82,72,65,71,67,64,98,85,65,30.07,29.90,15,2,15,0.02
2013-11-25,76,72,68,68,64,60,89,78,69,30.12,29.97,16,4,16,0.04
2013-11-26,83,77,72,75,72,68,92,86,75,29.97,29.73,18,3,18,0.17
2013-11-27,77,70,56,74,65,50,97,84,65,30.03,29.69,11,2,13,0.53
2013-11-28,74,61,46,61,53,43,90,75,54,30.16,30.03,8,2,13,0.00
2013-11-29,78,68,56,64,59,54,95,75,55,30.18,30.10,13,2,13,0.00
2013-11-30,78,68,60,70,63,58,95,83,64,30.13,30.02,11,1,18,0.13
2013-12-1,75,66,60,71,65,58,98,95,87,30.02,29.85,5,0,5,0.80
2013-12-2,72,66,58,67,64,57,98,92,75,29.85,29.74,6,1,6,0.01
2013-12-3,79,68,57,66,63,56,98,85,59,29.91,29.81,6,0,8,0.00
2013-12-4,82,70,61,70,65,60,98,85,65,30.01,29.90,8,0,8,0.00
2013-12-5,82,72,62,72,68,61,98,86,68,30.08,29.99,12,1,12,0.00
2013-12-6,82,75,65,72,69,64,96,82,67,30.10,30.00,13,2,13,0.00
2013-12-7,82,71,63,74,68,62,98,89,70,30.14,30.05,9,0,9,0.02
2013-12-8,82,76,70,72,69,66,91,79,62,30.12,30.03,13,2,13,0.00
2013-12-9,83,76,66,71,68,63,96,78,53,30.11,30.02,15,2,15,0.00
2013-12-10,85,74,66,74,70,64,98,87,66,30.07,29.99,10,1,10,0.00
2013-12-11,84,74,66,75,69,65,98,87,60,30.12,30.03,9,1,9,0.00
2013-12-12,78,70,64,71,65,59,98,86,69,30.14,30.05,14,1,14,0.01
2013-12-13,78,72,68,68,63,58,83,73,66,30.11,30.01,15,2,15,0.00
2013-12-14,81,76,71,72,70,67,95,82,73,30.02,29.90,15,3,15,0.00
2013-12-15,81,74,68,76,71,66,97,90,79,29.97,29.84,8,1,8,0.00
2013-12-16,74,66,60,66,61,57,92,82,70,30.07,29.95,8,1,8,0.00
2013-12-17,78,65,57,66,59,55,94,82,58,30.10,30.01,6,1,10,0.00
2013-12-18,76,64,56,62,57,55,97,80,54,30.15,30.05,7,1,14,0.01
2013-12-19,77,66,53,64,59,52,97,79,58,30.15,30.07,12,1,12,0.00
2013-12-20,80,74,63,70,67,60,91,79,68,30.10,30.02,9,1,13,0.00
2013-12-21,82,77,74,73,71,69,86,81,71,30.06,29.97,15,3,15,0.00
2013-12-22,83,78,76,73,72,71,89,82,70,30.07,29.99,14,3,14,0.00
2013-12-23,83,77,69,74,72,67,95,84,71,30.09,30.02,14,2,14,0.00
2013-12-24,82,70,64,74,66,60,98,88,70,30.09,30.00,10,1,10,0.12
2013-12-25,75,72,69,68,65,62,91,81,72,30.09,30.01,13,2,13,0.02
2013-12-26,78,74,71,71,69,66,88,84,75,30.08,29.98,9,1,9,0.00
2013-12-27,81,74,67,72,69,65,96,84,71,30.11,30.00,10,1,10,0.01
2013-12-28,79,76,73,72,70,67,93,83,78,30.09,29.93,14,3,14,0.05
2013-12-29,82,76,72,75,73,71,96,88,78,29.94,29.83,10,2,14,0.01
2013-12-30,77,71,67,72,68,64,97,91,80,30.06,29.89,6,0,6,0.01
2013-12-31,79,72,66,68,64,62,89,78,65,30.14,30.02,9,2,12,0.00
2014-1-1,81,75,72,73,70,64,93,83,75,30.11,29.95,13,2,13,0.02
2014-1-2,86,74,65,72,68,64,98,82,56,29.95,29.77,13,1,13,0.01